Weather History for Lawrence, MA

Change the Weather History Date:

Tuesday, March 4, 2014

  Actual Average Record
Temperature  
Mean Temperature 18 °F -  
Max Temperature 28 °F 39 °F 69 °F (1991)
Min Temperature 7 °F 22 °F -4 °F (1950)
Degree Days  
Heating Degree Days 48    
Moisture  
Dew Point -5 °F    
Average Humidity 36    
Maximum Humidity 53    
Minimum Humidity 26    
Precipitation  
Precipitation 0.00 in - - ()
Sea Level Pressure  
Sea Level Pressure 30.32 in    
Wind  
Wind Speed 4 mph (West)    
Max Wind Speed 8 mph    
Max Gust Speed -    
Visibility 10 miles    
Events      
Averages and records for this station are not official NWS values.
T = Trace of Precipitation, MM = Missing Value Source: NWS Daily Summary

Daily Weather History Graph

Daily Weather History Graph

Search for Another Location

Airport:

Trip Planner

Search our weather history database for the weather conditions in past years. The results will help you decide how hot, cold, wet, or windy it might be!

Date:

Astronomy

Mar. 04, 2014 Rise Set
Actual Time 6:15 AM EST 5:37 PM EST
Civil Twilight 5:47 AM EST 6:05 PM EST
Nautical Twilight 5:14 AM EST 6:38 PM EST
Astronomical Twilight 4:41 AM EST 7:11 PM EST
Moon 7:53 AM EST (3/4) 9:48 PM EST (3/4)
Length of Visible Light 12h 18m
Length of Day
11h 22m
Waxing Crescent, 14% of the Moon is Illuminated
Mar 4
Waxing Crescent
Mar 8
First Quarter
Mar 16
Full
Mar 23
Last Quarter
Mar 30
New

Hourly Weather History & Observations

Time (EST) Temp. Windchill Dew Point Humidity Pressure Visibility Wind Dir Wind Speed Gust Speed Precip Events Conditions
12:54 AM 10.9 °F - -9.0 °F 40% 30.32 in 10.0 mi Calm Calm - N/A   Clear
1:54 AM 9.0 °F 2.4 °F -5.1 °F 53% 30.33 in 10.0 mi NW 3.5 mph - N/A   Clear
2:54 AM 9.0 °F - -9.0 °F 44% 30.34 in 10.0 mi Calm Calm - N/A   Clear
3:54 AM 9.0 °F -0.9 °F -9.0 °F 44% 30.35 in 10.0 mi NW 5.8 mph - N/A   Clear
4:54 AM 8.1 °F -3.2 °F -9.0 °F 46% 30.36 in 10.0 mi WNW 6.9 mph - N/A   Clear
5:54 AM 8.1 °F -0.5 °F -9.9 °F 44% 30.35 in 10.0 mi North 4.6 mph - N/A   Clear
6:54 AM 7.0 °F - -8.0 °F 51% 30.38 in 10.0 mi Calm Calm - N/A   Clear
7:54 AM 10.0 °F -0.9 °F -9.0 °F 42% 30.38 in 10.0 mi NW 6.9 mph - N/A   Clear
8:54 AM 14.0 °F 2.9 °F -9.0 °F 35% 30.39 in 10.0 mi NNW 8.1 mph - N/A   Clear
9:54 AM 19.0 °F 13.9 °F -6.0 °F 33% 30.40 in 10.0 mi SW 3.5 mph - N/A   Clear
10:54 AM 19.9 °F 14.9 °F -2.9 °F 37% 30.37 in 10.0 mi SW 3.5 mph - N/A   Overcast
11:54 AM 21.9 °F 15.7 °F -7.1 °F 28% 30.34 in 10.0 mi Variable 4.6 mph - N/A   Clear
12:54 PM 24.1 °F 16.0 °F -6.0 °F 27% 30.30 in 10.0 mi West 6.9 mph - N/A   Clear
1:54 PM 26.1 °F 19.4 °F -5.1 °F 26% 30.29 in 10.0 mi WSW 5.8 mph - N/A   Clear
2:54 PM 27.0 °F 18.7 °F -4.0 °F 26% 30.27 in 10.0 mi WSW 8.1 mph - N/A   Clear
3:54 PM 27.0 °F 18.7 °F -2.9 °F 27% 30.27 in 10.0 mi SW 8.1 mph - N/A   Overcast
4:54 PM 28.0 °F 20.0 °F -2.0 °F 27% 30.26 in 10.0 mi SSW 8.1 mph - N/A   Overcast
5:54 PM 28.0 °F 20.8 °F -0.9 °F 29% 30.27 in 10.0 mi SSW 6.9 mph - N/A   Overcast
6:54 PM 28.0 °F 22.8 °F -0.0 °F 30% 30.28 in 10.0 mi SSW 4.6 mph - 0.00 in   Overcast
7:54 PM 28.0 °F 24.2 °F -0.0 °F 30% 30.28 in 10.0 mi SSW 3.5 mph - 0.00 in   Overcast
8:54 PM 28.0 °F - -0.0 °F 30% 30.28 in 10.0 mi Calm Calm - N/A   Overcast
9:54 PM 27.0 °F 18.7 °F 1.9 °F 34% 30.29 in 10.0 mi WSW 8.1 mph - N/A   Overcast
10:54 PM 26.1 °F 19.4 °F 1.9 °F 35% 30.29 in 10.0 mi WNW 5.8 mph - N/A   Mostly Cloudy
11:54 PM 26.1 °F 20.5 °F 1.9 °F 35% 30.27 in 10.0 mi NNW 4.6 mph - N/A   Mostly Cloudy